Weather History for Defiance, OH

Change the Weather History Date:

Friday, December 24, 2010

  Actual Average Record
Temperature  
Mean Temperature 28 °F -  
Max Temperature 30 °F 33 °F 59 °F (1940)
Min Temperature 26 °F 17 °F -18 °F (1983)
Degree Days  
Heating Degree Days 37    
Moisture  
Dew Point 20 °F    
Average Humidity 70    
Maximum Humidity 75    
Minimum Humidity 64    
Precipitation  
Precipitation 0.00 in - - ()
Sea Level Pressure  
Sea Level Pressure 30.33 in    
Wind  
Wind Speed 3 mph (NNE)    
Max Wind Speed 7 mph    
Max Gust Speed -    
Visibility 10 miles    
Events      
Averages and records for this station are not official NWS values.
T = Trace of Precipitation, MM = Missing Value Source: NWS Daily Summary

Daily Weather History Graph

Daily Weather History Graph

Search for Another Location

Airport:

Trip Planner

Search our weather history database for the weather conditions in past years. The results will help you decide how hot, cold, wet, or windy it might be!

Date:

Astronomy

Dec. 24, 2010 Rise Set
Actual Time 8:01 AM EST 5:13 PM EST
Civil Twilight 7:30 AM EST 5:44 PM EST
Nautical Twilight 6:55 AM EST 6:19 PM EST
Astronomical Twilight 6:21 AM EST 6:53 PM EST
Moon 9:21 PM EST (12/24) 10:18 AM EST (12/24)
Length of Visible Light 10h 14m
Length of Day
9h 11m
Waning Gibbous, 86% of the Moon is Illuminated
Dec 24
Waning Gibbous
Dec 27
Last Quarter
Jan 4
New
Jan 12
First Quarter
Jan 19
Full

Hourly Weather History & Observations

Time (EST) Temp. Windchill Dew Point Humidity Pressure Visibility Wind Dir Wind Speed Gust Speed Precip Events Conditions
12:53 AM 30.9 °F 25.2 °F 19.9 °F 64% 30.39 in 10.0 mi NNW 5.8 mph - N/A   Overcast
1:53 AM 30.0 °F 25.2 °F 19.9 °F 66% 30.38 in 10.0 mi NW 4.6 mph - N/A   Overcast
2:53 AM 30.0 °F 25.2 °F 21.0 °F 69% 30.39 in 10.0 mi NNW 4.6 mph - N/A   Overcast
4:53 AM 30.0 °F 23.2 °F 19.9 °F 66% 30.39 in 10.0 mi NW 6.9 mph - N/A   Overcast
5:53 AM 30.0 °F 26.5 °F 21.0 °F 69% 30.40 in 10.0 mi NW 3.5 mph - N/A   Overcast
7:53 AM 28.9 °F - 21.0 °F 72% 30.40 in 10.0 mi Calm Calm - N/A   Overcast
8:53 AM 28.0 °F 24.2 °F 21.0 °F 75% 30.40 in 10.0 mi East 3.5 mph - N/A   Overcast
9:53 AM 28.0 °F 24.2 °F 19.9 °F 72% 30.40 in 10.0 mi ENE 3.5 mph - N/A   Overcast
10:53 AM 28.9 °F 23.9 °F 19.9 °F 69% 30.40 in 10.0 mi East 4.6 mph - N/A   Overcast
11:53 AM 30.0 °F - 19.9 °F 66% 30.38 in 10.0 mi Calm Calm - N/A   Overcast
12:53 PM 30.0 °F - 19.9 °F 66% 30.34 in 10.0 mi Calm Calm - N/A   Overcast
1:53 PM 30.0 °F - 21.0 °F 69% 30.32 in 10.0 mi Calm Calm - N/A   Overcast
2:53 PM 30.0 °F 26.5 °F 19.9 °F 66% 30.30 in 10.0 mi NNE 3.5 mph - N/A   Overcast
3:53 PM 28.9 °F 23.9 °F 19.9 °F 69% 30.30 in 10.0 mi East 4.6 mph - N/A   Overcast
4:53 PM 28.9 °F 23.9 °F 19.9 °F 69% 30.30 in 10.0 mi East 4.6 mph - N/A   Overcast
5:53 PM 28.0 °F 24.2 °F 21.0 °F 75% 30.30 in 10.0 mi East 3.5 mph - N/A   Overcast
6:53 PM 28.0 °F - 21.0 °F 75% 30.29 in 10.0 mi Calm Calm - N/A   Overcast
7:53 PM 27.0 °F - 19.9 °F 75% 30.28 in 10.0 mi Calm Calm - N/A   Overcast
8:53 PM 27.0 °F - 19.0 °F 72% 30.26 in 10.0 mi Calm Calm - N/A   Overcast
9:53 PM 27.0 °F - 19.0 °F 72% 30.25 in 10.0 mi Calm Calm - N/A   Overcast
10:53 PM 26.1 °F - 19.0 °F 75% 30.24 in 10.0 mi Calm Calm - N/A   Overcast
11:53 PM 26.1 °F - 19.0 °F 75% 30.24 in 10.0 mi Calm Calm - N/A   Mostly Cloudy